Regional Weather Roundup
Issued by NWS

Home | Current Version | Previous Version | Graphics & Text | Print | Product List | Glossary On
Versions: 1 2 3 4 5 6 7 8 9 10 11 12 13 14 15 16 17 18 19 20 21 22 23 24 25 26 27 28 29 30 31 32 33 34 35 36 37 38 39 40 41 42 43 44 45 46 47 48 49 50
253
ASUS43 KMPX 231010
RWRMN
WEATHER ROUNDUP FOR MINNESOTA
NATIONAL WEATHER SERVICE TWIN CITIES/CHANHASSEN MN
500 AM CDT SAT SEP 23 2017


NOTE: "FAIR" INDICATES FEW OR NO CLOUDS BELOW 12,000 FEET WITH NO
SIGNIFICANT WEATHER AND/OR OBSTRUCTIONS TO VISIBILITY. N/A MEANS
CURRENT SKY AND/OR WEATHER CONDITIONS ARE NOT AVAILABLE.

MNZ060>063-068>070-231100-
   Twin Cities Metro

CITY           SKY/WX    TMP DP  RH WIND       PRES   REMARKS
TWIN CITIES    CLOUDY    79  69  71 S5        29.90R
ST PAUL        CLOUDY    73  69  87 SE9       29.90R
CRYSTAL        CLOUDY    78  65  63 S7        29.88R
BLAINE         MOCLDY    79  68  69 SW6       29.89R
LAKEVILLE      PTCLDY    73  66  78 S6        29.90R
EDEN PRAIRIE   MOCLDY    77  68  73 SW7       29.88R
SOUTH ST PAUL  MOCLDY    75  67  75 S6        29.90R
LAKE ELMO      FAIR      73  68  83 S6        29.91R
$$
MNZ001>005-007-008-013>017-022>024-027-028-231100-
   Northwest Minnesota

CITY           SKY/WX    TMP DP  RH WIND       PRES   REMARKS
BEMIDJI        CLOUDY    56  55  95 W12       29.87R
HALLOCK          N/A     50  48  93 N16       29.92R
ROSEAU         CLOUDY    54  48  82 NW9       29.87R HAZE
WARROAD        RAIN      54  48  82 NW9       29.86R
THIEF RVR FALL CLOUDY    51  49  92 NW17      29.90S
CROOKSTON      CLOUDY    50  48  93 N14       29.93S
FOSSTON        CLOUDY    52  50  93 W10       29.91R
DETROIT LAKES  CLOUDY    54  52  94 NW14      29.91R FOG
MOORHEAD       CLOUDY    54  50  87 N13       29.93F
PARK RAPIDS    CLOUDY    59  57  93 W7        29.86R
MAHNOMEN       CLOUDY    53  51  94 NW9       29.90S
$$
MNZ006-009>011-018-025>026-231100-
   North Central Minnesota

CITY           SKY/WX    TMP DP  RH WIND       PRES   REMARKS
BAUDETTE       CLOUDY    57  57 100 W14       29.83R
FLAG ISLAND    CLOUDY    55  54  94 W13       29.82R
INTL FALLS     CLOUDY    70  67  90 SW7       29.80R
WASKISH        CLOUDY    59  59 100 SW16G24   29.86R
BIG FORK       LGT RAIN  72  63  73 S7        29.85F
LONGVILLE      LGT RAIN  66  64  94 SE8       29.86S
GRAND RAPIDS   LGT RAIN  67  65  93 S3        29.91R
CRANE LAKE     CLOUDY    72  68  88 S5        29.84R
ORR            CLOUDY    72  63  73 S8        29.84R
COOK           LGT RAIN  72  64  78 SW14G22   29.89R
WALKER         FAIR      62  61  96 CALM      29.85F
$$
MNZ012-019>021-037-231100-
   Northeast Minnesota

CITY           SKY/WX    TMP DP  RH WIND       PRES   REMARKS
DULUTH         CLOUDY    73  70  90 W8        29.90R
ELY            CLOUDY    73  66  78 SW10      29.87R
HIBBING        LGT RAIN  67  66  97 S7        29.88F FOG
EVELETH        RAIN      69  62  80 SW10      29.91R
DULUTH HARBOR  CLOUDY    64  63  94 CALM      29.87R
TWO HARBORS    CLOUDY    70  64  83 NW3       29.88R
SILVER BAY     CLOUDY    63  63 100 CALM      29.86R FOG
GRAND MARAIS     N/A     62  62 100 SW3       29.85R
G MARAIS ARPRT   N/A     66  61  82 SW5       29.91R
$$
MNZ029>031-032-039>041-046>048-054>057-064-231100-
   West Central Minnesota

CITY           SKY/WX    TMP DP  RH WIND       PRES   REMARKS
FERGUS FALLS   CLOUDY    55  55 100 N10G17    29.90S
WHEATON        CLOUDY    55  54  94 NW8       29.94R
MORRIS         CLOUDY    57  55  94 NW13      29.89R
ALEXANDRIA     CLOUDY    61  60  97 NW5       29.88S
ELBOW LAKE     CLOUDY    55  55  99 W13       29.91R
WADENA         LGT RAIN  57  57 100 NW6       29.87F
GLENWOOD       CLOUDY    61  61 100 N5        29.88S
APPLETON       CLOUDY    59  55  88 NW8       29.90R
BENSON         CLOUDY    61  57  88 N7        29.90R
ORTONVILLE     CLOUDY    55  54  94 NW9G18    29.92R
MADISON        CLOUDY    61  61 100 NW8       29.92R
WILLMAR        FAIR      68  66  94 CALM      29.88S FOG
$$
MNZ033>034-036-042>043-049>051-058-059-231100-
   Central Minnesota

CITY           SKY/WX    TMP DP  RH WIND       PRES   REMARKS
ST CLOUD       CLOUDY    72  69  90 SE7       29.87R
SAUK CENTRE    FAIR      65  63  94 NW3       29.88S
PAYNESVILLE    PTCLDY    70  68  92 CALM      29.87S
AITKIN         CLOUDY    68  64  88 S3        29.87S
PINE RIVER     CLOUDY    64  61  88 CALM      29.90S
BRAINERD       MOCLDY    67  66  97 SE5       29.87S
STAPLES        DRIZZLE   64  63  94 CALM      29.87R
LONG PRAIRIE   FAIR      64  63  94 CALM      29.88R
LITTLE FALLS   CLOUDY    64  63  94 CALM      29.88R FOG
LITCHFIELD     CLEAR     72  70  94 CALM      29.88R
BUFFALO        PTCLDY    74  66  75 S5        29.89R
MAPLE LAKE     MOCLDY    74  69  85 CALM      29.89R
HUTCHINSON     CLOUDY    72  69  90 CALM      29.89R
$$
MNZ037-044-045-052-053-231100-
   East Central Minnesota

CITY           SKY/WX    TMP DP  RH WIND       PRES   REMARKS
PRINCETON      CLOUDY    75  68  78 S3        29.88S
MORA           PTCLDY    72  64  78 S5        29.90R
CAMBRIDGE      PTCLDY    77  64  65 CALM      29.89R
RUSH CITY      CLOUDY    70  67  90 SE3       29.90R
MOOSE LAKE     CLOUDY    72  68  88 CALM      29.88R
HINCKLEY       FAIR      72  70  94 S5        29.89R
CLOQUET        CLOUDY    73  64  73 W6        29.90R
MCGREGOR       CLOUDY    72  64  78 CALM      29.88F
$$
MNZ071>073-080-081-089-090-097-098-231100-
   Southwest Minnesota

CITY           SKY/WX    TMP DP  RH WIND       PRES   REMARKS
MONTEVIDEO     MOCLDY    63  63 100 N6        29.89R
GRANITE FALLS  PTCLDY    66  63  91 NW7       29.89R
CANBY          CLOUDY    59  56  91 W10       29.93R
MARSHALL       PTCLDY    63  61  93 NW5       29.89R
REDWOOD FALLS  PTCLDY    71  66  84 CALM      29.86R
OLIVIA         PTCLDY    70  66  88 CALM      29.86S
PIPESTONE      PTCLDY    64  63  94 CALM      29.88S
WINDOM         CLEAR     73  66  78 S10G18    29.88S
WORTHINGTON    CLEAR     72  67  84 S13       29.89S
JACKSON        CLEAR     70  64  83 S7        29.90S
TRACY          PTCLDY    65  64  96 NW3       29.89R
SLAYTON        PTCLDY    72  63  73 S12       29.89R
$$
MNZ065>067-074>077-082>085-091>093-231100-
   South Central Minnesota

CITY           SKY/WX    TMP DP  RH WIND       PRES   REMARKS
MANKATO        CLEAR     72  67  84 S7        29.90R
NEW ULM        CLEAR     73  66  78 S7        29.87R
ST JAMES       CLEAR     72  66  83 S9        29.88S
FAIRMONT       CLEAR     72  67  84 S10       29.90S
FARIBAULT      CLEAR     73  66  78 S8        29.92R
OWATONNA       CLEAR     73  66  78 S12       29.93R
WASECA         CLEAR     72  64  78 S9        29.93R
ALBERT LEA     CLEAR     75  68  78 S7        29.94R
$$
MNZ078>079-086>088-094>096-231100-
   Southeast Minnesota

CITY           SKY/WX    TMP DP  RH WIND       PRES   REMARKS
ROCHESTER      CLEAR     71  66  84 S9        29.97R
RED WING       CLEAR     75  64  69 SE3       29.91S
STANTON        PTCLDY    73  67  81 S8        29.90R
DODGE CENTER   CLEAR     72  64  78 S10       29.95S
WINONA         CLEAR     72  64  78 SE3       29.97R
AUSTIN         CLEAR     70  64  83 S5        29.96R
PRESTON        CLEAR     69  64  84 S7        29.99R
$$
ABBREVIATIONS USED IN REMARKS
   TC - TEMPERATURES IN CELSIUS
  WCI - WIND CHILL INDEX
   HX - HEAT INDEX
  VSB - VISIBILITY
$$




USA.gov is the U.S. government's official web portal to all federal, state and local government web resources and services.